Chicago O'Hare, IL

2:08 PM CDT on August 29, 2016 (GMT -0500)
Chicago-O'Hare International

Weather History for KORD - February, 2013

Change the Weather History Date:

Friday, February 22, 2013

  Actual Average Record
Temperature  
Mean Temperature 29 °F 30 °F  
Max Temperature 34 °F 38 °F 68 °F (1922)
Min Temperature 24 °F 22 °F -14 °F (1873)
Degree Days  
Heating Degree Days 36 35  
Month to date heating degree days 876 840  
Since 1 July heating degree days 4195 4530  
Cooling Degree Days 0 0  
Month to date cooling degree days 0 0  
Year to date cooling degree days 0 0  
Moisture  
Dew Point 25 °F    
Average Humidity 85    
Maximum Humidity 92    
Minimum Humidity 78    
Precipitation  
Precipitation 0.20 in 0.07 in 0.95 in (1919)
Month to date precipitation 2.31 1.32  
Year to date precipitation 5.94 3.05  
Snow  
Snow 1.90 in 0.30 in 4.60 in (1950)
Month to date snowfall 10.1 7.4  
Since 1 July snowfall 13.6 28.1  
Snow Depth 3.00 in    
Sea Level Pressure  
Sea Level Pressure 29.85 in    
Wind  
Wind Speed 11 mph (SSE)    
Max Wind Speed 21 mph    
Max Gust Speed 28 mph    
Visibility 4 miles    
Events Fog , Snow    
T = Trace of Precipitation, MM = Missing Value Source: NWS Daily Summary

Daily Weather History Graph

Daily Weather History Graph

Search for Another Location

Airport or City:

Trip Planner

Search our weather history database for the weather conditions in past years. The results will help you decide how hot, cold, wet, or windy it might be!

Date:

Astronomy

Feb. 22, 2013 Rise Set
Actual Time 6:37 AM CST 5:33 PM CST
Civil Twilight 6:08 AM CST 6:02 PM CST
Nautical Twilight 5:36 AM CST 6:34 PM CST
Astronomical Twilight 5:04 AM CST 7:06 PM CST
Moon 2:43 PM CST (2/22) 4:24 AM CST (2/22)
Length of Visible Light 11h 53m
Length of Day
10h 56m
Waxing Gibbous, 90% of the Moon is Illuminated
Feb 22
Waxing Gibbous
Feb 25
Full
Mar 4
Last Quarter
Mar 11
New
Mar 19
First Quarter

Hourly Weather History & Observations

Time (CST) Temp. Windchill Dew Point Humidity Pressure Visibility Wind Dir Wind Speed Gust Speed Precip Events Conditions
12:51 AM 25.0 °F 10.9 °F 23.0 °F 92% 29.98 in 0.5 mi East 19.6 mph 25.3 mph 0.04 in Fog , Snow Snow
1:19 AM 24.8 °F 11.5 °F 23.0 °F 93% 29.94 in 0.5 mi East 17.3 mph 26.5 mph 0.02 in Fog , Snow Snow
1:51 AM 24.1 °F 9.8 °F 21.9 °F 91% 29.95 in 0.5 mi East 19.6 mph - 0.06 in Fog , Snow Snow
2:27 AM 24.8 °F 12.4 °F 21.2 °F 86% 29.90 in 0.5 mi East 15.0 mph - 0.02 in Fog , Snow Light Snow
2:51 AM 24.1 °F 12.0 °F 23.0 °F 96% 29.92 in 0.5 mi East 13.8 mph - 0.04 in Fog , Snow Light Snow
3:01 AM 24.8 °F 11.5 °F 23.0 °F 93% 29.89 in 0.5 mi East 17.3 mph 21.9 mph 0.00 in Fog , Snow Snow
3:22 AM 24.8 °F 12.9 °F 23.0 °F 93% 29.88 in 0.5 mi East 13.8 mph - 0.03 in Fog , Snow Snow
3:34 AM 24.8 °F 13.4 °F 23.0 °F 93% 29.88 in 2.0 mi East 12.7 mph - 0.04 in Snow Light Snow
3:40 AM 24.8 °F 14.0 °F 23.0 °F 93% 29.88 in 3.0 mi East 11.5 mph - 0.04 in Snow Light Snow
3:51 AM 25.0 °F 12.6 °F 23.0 °F 92% 29.91 in 2.5 mi East 15.0 mph - 0.04 in Snow Light Snow
4:07 AM 24.8 °F 13.4 °F 23.0 °F 93% 29.87 in 1.0 mi East 12.7 mph - 0.00 in Snow Light Snow
4:09 AM 24.8 °F 14.0 °F 23.0 °F 93% 29.87 in 0.8 mi East 11.5 mph - 0.00 in Snow Light Snow
4:40 AM 24.8 °F 12.9 °F 21.2 °F 86% 29.86 in 1.0 mi East 13.8 mph - 0.01 in Snow Light Snow
4:49 AM 24.8 °F 13.4 °F 21.2 °F 86% 29.86 in 3.0 mi East 12.7 mph - 0.01 in Snow Light Snow
4:51 AM 25.0 °F 13.6 °F 21.9 °F 88% 29.89 in 3.0 mi East 12.7 mph - 0.01 in Snow Light Snow
4:58 AM 24.8 °F 13.4 °F 21.2 °F 86% 29.86 in 4.0 mi East 12.7 mph - 0.00 in Snow Light Snow
5:17 AM 24.8 °F 14.6 °F 21.2 °F 86% 29.85 in 3.0 mi East 10.4 mph - 0.00 in Snow Light Snow
5:43 AM 24.8 °F 14.6 °F 23.0 °F 93% 29.84 in 2.5 mi East 10.4 mph - 0.01 in Snow Light Snow
5:51 AM 25.0 °F 14.8 °F 23.0 °F 92% 29.87 in 2.5 mi East 10.4 mph - 0.01 in Snow Light Snow
6:08 AM 24.8 °F 13.4 °F 23.0 °F 93% 29.83 in 2.5 mi ESE 12.7 mph - 0.00 in Snow Light Snow
6:20 AM 24.8 °F 15.3 °F 23.0 °F 93% 29.83 in 4.0 mi East 9.2 mph - 0.00 in Snow Light Snow
6:30 AM 24.8 °F 15.3 °F 23.0 °F 93% 29.83 in 5.0 mi East 9.2 mph - 0.00 in Snow Light Snow
6:51 AM 24.8 °F 15.3 °F 23.0 °F 93% 29.83 in 8.0 mi East 9.2 mph - N/A   Overcast
7:51 AM 27.0 °F 15.6 °F 23.0 °F 85% 29.83 in 10.0 mi ESE 13.8 mph - N/A   Overcast
8:51 AM 27.0 °F 17.3 °F 24.1 °F 89% 29.83 in 6.0 mi SSE 10.4 mph - N/A   Overcast
9:09 AM 26.6 °F 16.8 °F 24.8 °F 93% 29.81 in 7.0 mi SE 10.4 mph - N/A   Overcast
9:51 AM 28.4 °F 22.2 °F 24.8 °F 86% 29.81 in 5.0 mi SSE 5.8 mph - N/A Snow Light Snow
10:06 AM 28.4 °F 22.2 °F 26.6 °F 93% 29.82 in 2.5 mi South 5.8 mph - 0.00 in Snow Light Snow
10:09 AM 28.4 °F 20.4 °F 26.6 °F 93% 29.81 in 4.0 mi South 8.1 mph - 0.00 in Snow Light Snow
10:49 AM 28.4 °F 20.4 °F 26.6 °F 93% 29.81 in 2.0 mi SSE 8.1 mph - 0.00 in Snow Light Snow
10:51 AM 28.0 °F 21.7 °F 27.0 °F 96% 29.84 in 1.8 mi SSE 5.8 mph - 0.00 in Snow Light Snow
11:03 AM 28.4 °F 21.2 °F 28.4 °F 100% 29.81 in 1.2 mi SSE 6.9 mph - 0.00 in Snow Light Snow
11:27 AM 28.4 °F 21.2 °F 28.4 °F 100% 29.82 in 1.5 mi South 6.9 mph - 0.00 in Snow Light Freezing Drizzle
11:51 AM 30.0 °F 24.1 °F 28.9 °F 96% 29.84 in 1.5 mi South 5.8 mph - 0.00 in Snow Light Freezing Drizzle
12:22 PM 30.2 °F 24.3 °F 30.2 °F 100% 29.79 in 2.5 mi South 5.8 mph - 0.00 in Snow Light Freezing Drizzle
12:32 PM 30.2 °F 25.4 °F 30.2 °F 100% 29.79 in 2.5 mi South 4.6 mph - 0.00 in Snow Light Snow
12:51 PM 32.0 °F 26.4 °F 30.0 °F 92% 29.81 in 2.5 mi South 5.8 mph - 0.00 in Snow Light Snow
1:27 PM 33.8 °F 28.6 °F 30.2 °F 87% 29.78 in 3.0 mi SSW 5.8 mph - 0.00 in Snow Light Snow
1:38 PM 33.8 °F 27.7 °F 30.2 °F 87% 29.78 in 3.0 mi SSW 6.9 mph - 0.00 in Snow Light Snow
1:47 PM 33.8 °F 27.7 °F 30.2 °F 87% 29.78 in 5.0 mi SSW 6.9 mph - 0.00 in Snow Light Snow
1:51 PM 33.1 °F 27.7 °F 30.9 °F 92% 29.81 in 5.0 mi SW 5.8 mph - 0.00 in Snow Light Snow
2:36 PM 33.8 °F 25.3 °F 30.2 °F 87% 29.79 in 7.0 mi WSW 11.5 mph 18.4 mph 0.00 in   Overcast
2:51 PM 34.0 °F 27.2 °F 30.0 °F 85% 29.82 in 7.0 mi SW 8.1 mph - 0.00 in   Overcast
3:51 PM 33.1 °F 23.0 °F 28.0 °F 82% 29.84 in 8.0 mi WSW 15.0 mph 20.7 mph N/A   Overcast
4:51 PM 32.0 °F 21.6 °F 26.1 °F 79% 29.85 in 8.0 mi WSW 15.0 mph - N/A   Overcast
5:41 PM 32.0 °F 21.6 °F 24.8 °F 75% 29.84 in 8.0 mi WSW 15.0 mph - N/A   Overcast
5:51 PM 30.9 °F 21.7 °F 25.0 °F 79% 29.87 in 8.0 mi WSW 11.5 mph 19.6 mph N/A   Overcast
6:51 PM 30.0 °F 20.0 °F 25.0 °F 82% 29.89 in 7.0 mi WSW 12.7 mph - 0.00 in Snow Light Snow
7:51 PM 30.0 °F 21.1 °F 24.1 °F 79% 29.91 in 10.0 mi SW 10.4 mph - 0.00 in   Overcast
8:51 PM 28.9 °F 18.2 °F 24.1 °F 82% 29.91 in 9.0 mi SW 13.8 mph - 0.00 in Snow Light Snow
9:51 PM 28.9 °F 19.2 °F 23.0 °F 78% 29.91 in 9.0 mi WSW 11.5 mph - 0.00 in Snow Light Snow
10:51 PM 28.0 °F 17.5 °F 23.0 °F 81% 29.91 in 9.0 mi WSW 12.7 mph - 0.00 in Snow Light Snow
11:51 PM 28.0 °F 17.0 °F 23.0 °F 81% 29.90 in 9.0 mi WSW 13.8 mph - 0.00 in Snow Light Snow